Woodlawn Beach Middle School FL US WEATHERSTEM current weather conditions

sailwx.info

Air temperature 5.4° C
Dewpoint 3.0° C

Last reported at 2020-Jan-25 12:40 UTC.
Time now 2020-Jan-25 14:12 UTC

Location: N 30°24' W 087°01'.
View on Google Maps.

See reports from other nearby stations

  
Tides and Currents Weather Stations Pressure Air Temp Water Temp Dewpoint Dewpoint Depression Visibility Wind Speed Wind Dir Waves Ship Positions
date/time (UTC)wind fromknots sea level pressurealtimeterstation pressurevisibilityair tempwater tempwave heightnotes
2020-Jan-25 12:40 5.4
2020-Jan-25 12:30 5.6
2020-Jan-25 12:20 5.9
2020-Jan-25 12:10 6.2
2020-Jan-25 11:50 6.4
2020-Jan-25 11:40 6.6
2020-Jan-25 11:30 318 1 gusting 6 6.6
2020-Jan-25 11:20 307 4 gusting 7 6.6
2020-Jan-25 11:00 312 4 gusting 6 6.4
2020-Jan-25 10:50 294 0 gusting 4 6.5
2020-Jan-25 10:40 322 2 gusting 6 6.6
2020-Jan-25 10:30 318 2 gusting 6 6.7
2020-Jan-25 10:10 296 6 gusting 6 6.8
2020-Jan-25 10:00 310 3 gusting 9 7.0
2020-Jan-25 09:40 298 4 gusting 10 7.3
2020-Jan-25 09:30 294 6 gusting 11 7.4
2020-Jan-25 09:20 315 6 gusting 12 7.4
2020-Jan-25 09:10 329 8 gusting 14 7.6
2020-Jan-25 09:00 292 8 gusting 13 7.7
2020-Jan-25 08:40 290 6 gusting 12 7.9
2020-Jan-25 08:30 319 6 gusting 13 8.0
2020-Jan-25 08:10 293 6 gusting 12 8.2
2020-Jan-25 08:00 318 6 gusting 14 8.3
2020-Jan-25 07:50 303 6 gusting 13 8.5
2020-Jan-25 07:40 300 6 gusting 11 8.7
2020-Jan-25 07:30 289 7 gusting 12 8.8
2020-Jan-25 07:20 290 6 gusting 13 9.0
2020-Jan-25 07:10 296 8 gusting 12 9.2
2020-Jan-25 07:00 314 5 gusting 14 9.4
2020-Jan-25 06:50 284 7 gusting 11 9.6
2020-Jan-25 06:40 291 7 gusting 11 10.0
2020-Jan-25 06:30 296 4 gusting 10 10.1
2020-Jan-25 06:20 301 7 gusting 11 10.4
2020-Jan-25 06:10 290 2 gusting 7 10.7
2020-Jan-25 06:00 292 6 gusting 11 10.9
2020-Jan-25 05:50 289 6 gusting 9 10.9
2020-Jan-25 05:40 273 0 gusting 3 10.7
2020-Jan-25 05:30 262 0 gusting 4 10.8
2020-Jan-25 05:20 238 2 gusting 6 10.9
2020-Jan-25 05:10 11.1
2020-Jan-25 05:00 198 0 gusting 4 11.2
2020-Jan-25 04:50 257 0 gusting 3 11.3
2020-Jan-25 04:40 271 2 gusting 6 11.3
2020-Jan-25 04:30 259 1 gusting 5 11.3
2020-Jan-25 04:20 11.4
2020-Jan-25 04:10 250 1 gusting 6 11.4
2020-Jan-25 04:00 11.4
2020-Jan-25 03:50 11.5
2020-Jan-25 03:40 11.6
2020-Jan-25 03:30 248 1 gusting 6 11.6
2020-Jan-25 03:20 199 1 gusting 6 11.7
2020-Jan-25 03:10 202 1 gusting 5 11.9
2020-Jan-25 03:00 244 2 gusting 4 12.0
2020-Jan-25 02:50 12.1
2020-Jan-25 02:30 264 3 gusting 9 12.1
2020-Jan-25 02:20 194 5 gusting 7 12.1
2020-Jan-25 02:10 12.1
2020-Jan-25 02:00 12.2
2020-Jan-25 01:50 167 3 gusting 5 12.2
2020-Jan-25 01:30 173 2 gusting 6 12.4
2020-Jan-25 01:10 206 2 gusting 8 12.7
2020-Jan-25 01:00 197 2 gusting 8 12.9
2020-Jan-25 00:40 202 0 gusting 6 12.9
2020-Jan-25 00:30 198 2 gusting 7 12.9
2020-Jan-25 00:20 222 2 gusting 6 12.7
2020-Jan-25 00:10 232 1 gusting 3 12.8
2020-Jan-25 00:00 221 1 gusting 4 12.9
2020-Jan-24 23:50 13.3
2020-Jan-24 23:40 13.6
2020-Jan-24 23:30 200 4 gusting 4 13.8
2020-Jan-24 23:10 172 1 gusting 6 15.1
2020-Jan-24 23:00 360 1 gusting 4 15.8
2020-Jan-24 22:40 16.3
2020-Jan-24 22:30 360 0 gusting 4 16.5
2020-Jan-24 22:20 360 1 gusting 4 16.7
2020-Jan-24 22:10 360 1 gusting 3 16.8
2020-Jan-24 22:00 360 3 gusting 4 16.9
2020-Jan-24 21:50 360 0 gusting 4 16.8
2020-Jan-24 21:40 360 1 gusting 6 16.8
2020-Jan-24 21:30 360 2 gusting 6 16.9
2020-Jan-24 21:20 360 2 gusting 6 16.9
2020-Jan-24 21:10 285 3 gusting 6 16.9
2020-Jan-24 21:00 293 3 gusting 8 16.8
2020-Jan-24 20:50 269 5 gusting 8 17.0
2020-Jan-24 20:40 313 5 gusting 7 16.9
2020-Jan-24 20:30 310 4 gusting 9 16.8
2020-Jan-24 20:20 288 3 gusting 8 16.9
2020-Jan-24 20:10 294 7 gusting 10 16.7
2020-Jan-24 20:00 269 6 gusting 9 16.8
2020-Jan-24 19:40 278 3 gusting 8 16.9
2020-Jan-24 19:30 237 4 gusting 12 16.5
2020-Jan-24 19:20 287 6 gusting 10 16.3
2020-Jan-24 19:10 313 8 gusting 11 16.2
2020-Jan-24 19:00 296 4 gusting 9 16.1
2020-Jan-24 18:50 307 3 gusting 8 15.7
2020-Jan-24 18:40 282 2 gusting 8 15.4
2020-Jan-24 18:20 281 2 gusting 7 15.1
2020-Jan-24 18:10 298 6 gusting 11 15.2
2020-Jan-24 18:00 227 0 gusting 10 15.3
2020-Jan-24 17:40 277 3 gusting 11 14.1
2020-Jan-24 17:30 241 4 gusting 7 13.9
2020-Jan-24 17:20 192 0 gusting 6 13.9
2020-Jan-24 17:10 280 2 gusting 6 14.0
2020-Jan-24 17:00 284 3 gusting 6 13.9
2020-Jan-24 16:50 295 4 gusting 8 13.8
2020-Jan-24 16:40 274 2 gusting 6 13.5
2020-Jan-24 16:20 284 2 gusting 9 13.3
2020-Jan-24 16:10 298 6 gusting 8 13.2
2020-Jan-24 15:50 268 5 gusting 10 13.2
2020-Jan-24 15:40 277 6 gusting 10 13.1
2020-Jan-24 15:30 299 2 gusting 10 12.8
2020-Jan-24 15:20 296 6 gusting 11 12.7
2020-Jan-24 15:10 281 6 gusting 14 12.7
2020-Jan-24 15:00 315 5 gusting 10 12.8
2020-Jan-24 14:50 282 6 gusting 13 12.7
2020-Jan-24 14:40 288 6 gusting 12 12.8
2020-Jan-24 14:30 319 6 gusting 11 12.8
2020-Jan-24 14:20 310 8 gusting 11 12.7
2020-Jan-24 14:10 291 3 gusting 11 12.6
2020-Jan-24 14:00 281 6 gusting 9 12.6
2020-Jan-24 13:50 283 7 gusting 13 12.6
2020-Jan-24 12:10 288 0 gusting 2 13.1
2020-Jan-24 12:00 12.7
2020-Jan-24 11:50 284 1 gusting 3 12.7
2020-Jan-24 11:30 12.0
2020-Jan-24 11:10 12.2
2020-Jan-24 11:00 12.2
2020-Jan-24 10:50 12.2
2020-Jan-24 10:40 227 0 gusting 2 12.2
2020-Jan-24 10:30 12.2
2020-Jan-24 10:20 12.2
2020-Jan-24 09:50 12.6
2020-Jan-24 09:40 12.8
2020-Jan-24 09:30 227 0 gusting 2 12.9
2020-Jan-24 09:10 13.3
2020-Jan-24 08:40 227 0 gusting 1 13.9
2020-Jan-24 08:30 227 1 gusting 1 14.3
2020-Jan-24 08:20 227 0 gusting 2 14.7
2020-Jan-24 08:10 227 0 gusting 1 15.3
2020-Jan-24 07:50 16.3
2020-Jan-24 07:30 206 2 gusting 3 17.4
2020-Jan-24 07:20 090 1 gusting 3 17.2
2020-Jan-24 07:10 117 1 gusting 3 17.2
2020-Jan-24 06:50 17.2
2020-Jan-24 06:30 17.4
2020-Jan-24 06:20 17.7
2020-Jan-24 06:10 128 0 gusting 4 17.7
2020-Jan-24 05:50 146 7 gusting 7 17.7
2020-Jan-24 05:40 116 1 gusting 6 17.8
2020-Jan-24 05:30 144 4 gusting 6 17.8
2020-Jan-24 05:20 132 3 gusting 6 17.7
2020-Jan-24 05:10 128 1 gusting 6 17.6
2020-Jan-24 04:50 117 6 gusting 8 17.3
2020-Jan-24 04:40 131 8 gusting 10 17.2
2020-Jan-24 04:30 152 4 gusting 10 17.0
2020-Jan-24 04:20 102 6 gusting 9 16.9
2020-Jan-24 04:10 116 7 gusting 9 16.7
2020-Jan-24 03:50 076 3 gusting 5 15.9
2020-Jan-24 03:40 090 5 gusting 10 15.4
2020-Jan-24 03:30 064 5 gusting 9 15.3
2020-Jan-24 03:20 098 3 gusting 6 15.3
2020-Jan-24 03:10 096 3 gusting 12 15.4
2020-Jan-24 02:50 053 6 gusting 13 15.4
2020-Jan-24 02:40 101 3 gusting 11 15.6
2020-Jan-24 02:30 105 6 gusting 12 15.4
2020-Jan-24 02:20 088 7 gusting 11 15.6
2020-Jan-24 02:10 061 7 gusting 12 15.6
2020-Jan-24 01:50 094 2 gusting 10 15.2
2020-Jan-24 01:40 051 1 gusting 10 14.7
2020-Jan-24 01:20 023 4 gusting 13 14.4
2020-Jan-24 01:10 082 7 gusting 11 14.3
2020-Jan-24 01:00 072 2 gusting 9 14.2
2020-Jan-24 00:50 085 2 gusting 12 14.1
2020-Jan-24 00:20 056 5 gusting 11 13.7
2020-Jan-24 00:10 072 1 gusting 12 13.4
2020-Jan-24 00:00 111 3 gusting 12 13.3
2020-Jan-23 23:40 064 2 gusting 10 13.2
2020-Jan-23 23:20 089 2 gusting 11 13.1
2020-Jan-23 23:10 081 6 gusting 14 13.0
2020-Jan-23 23:00 058 6 gusting 13 12.9
2020-Jan-23 22:50 059 6 gusting 13 12.8
2020-Jan-23 22:40 078 6 gusting 11 12.6
2020-Jan-23 22:20 069 7 gusting 11 11.8
2020-Jan-23 22:10 083 6 gusting 8 11.7
2020-Jan-23 22:00 072 4 gusting 7 11.6
2020-Jan-23 21:50 025 2 gusting 8 11.5
2020-Jan-23 21:40 11.4
2020-Jan-23 21:20 11.4
2020-Jan-23 21:10 023 0 gusting 8 11.3
2020-Jan-23 21:00 028 0 gusting 5 11.3
2020-Jan-23 20:40 005 1 gusting 9 11.5
2020-Jan-23 20:20 065 5 gusting 8 11.6
2020-Jan-23 20:10 057 2 gusting 7 11.6
2020-Jan-23 20:00 057 1 gusting 13 11.5
2020-Jan-23 19:50 064 9 gusting 9 11.7
2020-Jan-23 19:40 066 2 gusting 11 11.8
2020-Jan-23 19:20 069 3 gusting 9 11.9
2020-Jan-23 19:00 118 3 gusting 12 11.9
2020-Jan-23 18:50 065 0 gusting 11 11.8
2020-Jan-23 18:40 057 6 gusting 11 11.7
2020-Jan-23 18:20 019 7 gusting 13 11.4
2020-Jan-23 18:10 100 6 gusting 13 11.6
2020-Jan-23 18:00 056 6 gusting 12 11.6
2020-Jan-23 17:50 063 1 gusting 13 11.6
2020-Jan-23 17:40 065 9 gusting 11 11.7
2020-Jan-23 17:20 070 3 gusting 11 11.7
2020-Jan-23 17:10 040 3 gusting 11 11.7
2020-Jan-23 17:00 049 2 gusting 12 11.6
2020-Jan-23 16:50 343 5 gusting 9 11.5
2020-Jan-23 16:40 083 1 gusting 13 11.3
2020-Jan-23 16:20 053 9 gusting 12 11.4
2020-Jan-23 16:10 059 7 gusting 16 11.5
2020-Jan-23 16:00 036 5 gusting 12 11.6
2020-Jan-23 15:40 058 6 gusting 7 10.2
2020-Jan-23 15:10 351 6 gusting 8 9.7
2020-Jan-23 15:00 032 2 gusting 8 9.6
2020-Jan-23 14:40 062 4 gusting 6 9.3
2020-Jan-23 14:20 015 2 gusting 9 9.1
2020-Jan-23 14:10 019 3 gusting 7 9.1
2020-Jan-23 14:00 360 3 gusting 7 9.0